30.06.2024;16:00;83
30.06.2024;15:00;88
30.06.2024;14:00;94
30.06.2024;13:00;101
30.06.2024;12:00;105
30.06.2024;11:00;94
30.06.2024;10:00;91
30.06.2024;09:00;68
30.06.2024;08:00;29
30.06.2024;07:00;15
30.06.2024;06:00;16
30.06.2024;05:00;20
30.06.2024;04:00;23
30.06.2024;03:00;23
30.06.2024;02:00;17
30.06.2024;01:00;31
30.06.2024;00:00;29
29.06.2024;23:00;33
29.06.2024;22:00;36
29.06.2024;21:00;52
29.06.2024;20:00;81
29.06.2024;19:00;93
29.06.2024;18:00;104
29.06.2024;17:00;106
29.06.2024;16:00;106
29.06.2024;15:00;106
29.06.2024;14:00;107
29.06.2024;13:00;107
29.06.2024;12:00;106
29.06.2024;11:00;85
29.06.2024;10:00;49
29.06.2024;09:00;22
29.06.2024;08:00;12
29.06.2024;07:00;11
29.06.2024;06:00;9
29.06.2024;05:00;9
29.06.2024;04:00;13
29.06.2024;03:00;12
29.06.2024;02:00;17
29.06.2024;01:00;23
29.06.2024;00:00;26
28.06.2024;23:00;27
28.06.2024;22:00;45
28.06.2024;21:00;76
28.06.2024;20:00;87
28.06.2024;19:00;90
28.06.2024;18:00;104
28.06.2024;17:00;105
